Location: ??
(35.4032°N, 139.3073°E)
Time: 11:07:56
(UTC+00:00)

Meteor 2-4 Rocket - Pass Details

Date: 13 April 2024
Orbit: 799 x 907 km, 81.2° (Epoch: 21 May)

Event Time Altitude Azimuth Distance (km) Brightness Sun altitude
Exits shadow 18:29:50 28° 195° (SSW) 1,477 4.6 -20.3°
Maximum altitude 18:32:46 79° 279° (W) 829 3.5 -19.8°
Drops below altitude 10° 18:38:15 10° 6° (N) 2,427 6.5 -18.8°
Sets 18:40:41 0° 7° (N) 3,378 7.3 -18.3°
